When you browse on this site, cookies collect data to enhance your experience and personalize the content and advertising you see.
Visit our Privacy Policy to learn more. By continuing to use the site, you agree to this use of cookies and data.
EN

Hourly Weather Koryta

Today, 25 September, Friday

Time Temperature Precipitation Wind Pressure Humidity
00:00 +16°C° 0 mm 2 mps 744 mmHg 83%
01:00 +16°C° 0 mm 2 mps 744 mmHg 85%
02:00 +15°C° 0.1 mm 2 mps 744 mmHg 87%
03:00 +15°C° 0.1 mm 2 mps 743 mmHg 88%
04:00 +15°C° 0.1 mm 2 mps 743 mmHg 89%
05:00 +16°C° 0.1 mm 3 mps 743 mmHg 87%
06:00 +16°C° 0.1 mm 3 mps 743 mmHg 84%
07:00 +17°C° 0 mm 3 mps 743 mmHg 80%
08:00 +19°C° 0 mm 4 mps 742 mmHg 74%
09:00 +20°C° 0 mm 5 mps 742 mmHg 67%
10:00 +22°C° 0 mm 5 mps 742 mmHg 61%
11:00 +23°C° 0 mm 6 mps 741 mmHg 58%
12:00 +24°C° 0 mm 6 mps 741 mmHg 54%
13:00 +26°C° 0 mm 6 mps 740 mmHg 54%
14:00 +24°C° 0.1 mm 6 mps 740 mmHg 57%
15:00 +23°C° 0.1 mm 6 mps 739 mmHg 59%
16:00 +23°C° 0.1 mm 5 mps 738 mmHg 61%
17:00 +22°C° 0.1 mm 6 mps 738 mmHg 63%
18:00 +21°C° 0.1 mm 6 mps 738 mmHg 65%
19:00 +21°C° 0.1 mm 6 mps 738 mmHg 67%
20:00 +20°C° 0.4 mm 5 mps 738 mmHg 72%
21:00 +19°C° 0.4 mm 4 mps 738 mmHg 78%
22:00 +18°C° 0.4 mm 3 mps 738 mmHg 83%
23:00 +18°C° 0 mm 4 mps 738 mmHg 81%

Tomorrow, 26 September, Saturday

Time Temperature Precipitation Wind Pressure Humidity
00:00 +18°C° 0 mm 4 mps 737 mmHg 80%
01:00 +18°C° 0 mm 4 mps 737 mmHg 78%
02:00 +18°C° 0 mm 4 mps 737 mmHg 77%
03:00 +17°C° 0 mm 5 mps 737 mmHg 77%
04:00 +16°C° 0 mm 5 mps 737 mmHg 76%
05:00 +17°C° 0 mm 5 mps 736 mmHg 76%
06:00 +17°C° 0 mm 6 mps 736 mmHg 75%
07:00 +17°C° 0 mm 6 mps 736 mmHg 75%
08:00 +18°C° 0 mm 7 mps 736 mmHg 71%
09:00 +20°C° 0 mm 7 mps 737 mmHg 67%
10:00 +21°C° 0 mm 7 mps 737 mmHg 63%
11:00 +22°C° 0 mm 7 mps 737 mmHg 62%
12:00 +23°C° 0 mm 7 mps 737 mmHg 60%
13:00 +23°C° 0 mm 7 mps 736 mmHg 58%
14:00 +23°C° 0.2 mm 7 mps 737 mmHg 60%
15:00 +23°C° 0.2 mm 6 mps 737 mmHg 62%
16:00 +22°C° 0.2 mm 6 mps 737 mmHg 64%
17:00 +21°C° 1.3 mm 5 mps 737 mmHg 70%
18:00 +20°C° 1.3 mm 4 mps 737 mmHg 77%
19:00 +19°C° 1.3 mm 3 mps 737 mmHg 84%
20:00 +19°C° 0.4 mm 3 mps 737 mmHg 83%
21:00 +19°C° 0.4 mm 3 mps 737 mmHg 81%
22:00 +19°C° 0.4 mm 3 mps 737 mmHg 80%
23:00 +19°C° 0 mm 4 mps 737 mmHg 77%

Day after tomorrow, 27 September, Sunday

Time Temperature Precipitation Wind Pressure Humidity
00:00 +19°C° 0 mm 5 mps 737 mmHg 74%
01:00 +19°C° 0 mm 6 mps 737 mmHg 71%
02:00 +19°C° 0.1 mm 6 mps 737 mmHg 72%
03:00 +19°C° 0.1 mm 6 mps 737 mmHg 72%
04:00 +19°C° 0.1 mm 6 mps 737 mmHg 72%
05:00 +18°C° 0.4 mm 7 mps 737 mmHg 73%
06:00 +18°C° 0.4 mm 7 mps 737 mmHg 74%
07:00 +18°C° 0.4 mm 8 mps 737 mmHg 74%
08:00 +18°C° 0.2 mm 8 mps 737 mmHg 76%
09:00 +17°C° 0.2 mm 9 mps 737 mmHg 79%
10:00 +17°C° 0.2 mm 9 mps 738 mmHg 81%
11:00 +17°C° 0.7 mm 8 mps 738 mmHg 81%
12:00 +16°C° 0.7 mm 8 mps 738 mmHg 82%
13:00 +15°C° 0.7 mm 7 mps 739 mmHg 82%
14:00 +14°C° 1.1 mm 7 mps 739 mmHg 85%
15:00 +11°C° 1.1 mm 7 mps 740 mmHg 88%
16:00 +9°C° 1.1 mm 6 mps 741 mmHg 91%
17:00 +9°C° 0.3 mm 6 mps 742 mmHg 89%
18:00 +9°C° 0.3 mm 6 mps 743 mmHg 88%
19:00 +9°C° 0.3 mm 5 mps 744 mmHg 86%
20:00 +9°C° 0 mm 5 mps 744 mmHg 86%
21:00 +10°C° 0 mm 4 mps 745 mmHg 87%
22:00 +10°C° 0 mm 4 mps 746 mmHg 87%
23:00 +10°C° 0 mm 4 mps 746 mmHg 87%

28 September, Monday

Time Temperature Precipitation Wind Pressure Humidity
00:00 +10°C° 0 mm 4 mps 747 mmHg 88%
01:00 +8°C° 0 mm 4 mps 747 mmHg 88%
02:00 +8°C° 0 mm 4 mps 747 mmHg 89%
03:00 +8°C° 0 mm 4 mps 748 mmHg 89%
04:00 +8°C° 0 mm 3 mps 748 mmHg 90%
05:00 +9°C° 0 mm 3 mps 748 mmHg 87%
06:00 +8°C° 0 mm 4 mps 749 mmHg 85%
07:00 +8°C° 0 mm 4 mps 749 mmHg 83%
08:00 +11°C° 0 mm 3 mps 749 mmHg 76%
09:00 +13°C° 0 mm 3 mps 749 mmHg 69%
10:00 +16°C° 0 mm 3 mps 750 mmHg 62%
11:00 +15°C° 0 mm 4 mps 750 mmHg 59%
12:00 +17°C° 0 mm 4 mps 750 mmHg 56%
13:00 +18°C° 0 mm 4 mps 749 mmHg 53%
14:00 +17°C° 0 mm 4 mps 749 mmHg 56%
15:00 +17°C° 0 mm 4 mps 749 mmHg 58%
16:00 +16°C° 0 mm 3 mps 749 mmHg 61%
17:00 +15°C° 0 mm 4 mps 749 mmHg 65%
18:00 +14°C° 0 mm 4 mps 749 mmHg 69%
19:00 +14°C° 0 mm 4 mps 748 mmHg 73%
20:00 +14°C° 0.1 mm 4 mps 748 mmHg 75%
21:00 +14°C° 0.1 mm 4 mps 748 mmHg 78%
22:00 +14°C° 0.1 mm 5 mps 748 mmHg 80%
23:00 +13°C° 0.8 mm 5 mps 747 mmHg 83%

29 September, Tuesday

Time Temperature Precipitation Wind Pressure Humidity
00:00 +13°C° 0.8 mm 5 mps 747 mmHg 86%
01:00 +13°C° 0.8 mm 6 mps 746 mmHg 90%
02:00 +13°C° 0.4 mm 5 mps 746 mmHg 90%
03:00 +13°C° 0.4 mm 5 mps 746 mmHg 91%
04:00 +13°C° 0.4 mm 4 mps 746 mmHg 91%
05:00 +13°C° 0.2 mm 4 mps 746 mmHg 91%
06:00 +13°C° 0.2 mm 4 mps 745 mmHg 91%
07:00 +13°C° 0.2 mm 4 mps 745 mmHg 92%
08:00 +13°C° 1 mm 5 mps 745 mmHg 91%
09:00 +12°C° 1 mm 5 mps 745 mmHg 91%
10:00 +12°C° 1 mm 5 mps 745 mmHg 91%
11:00 +12°C° 0.6 mm 5 mps 745 mmHg 90%
12:00 +12°C° 0.6 mm 4 mps 745 mmHg 89%
13:00 +13°C° 0.6 mm 4 mps 745 mmHg 88%
14:00 +13°C° 0.6 mm 4 mps 745 mmHg 89%
15:00 +13°C° 0.6 mm 4 mps 745 mmHg 90%
16:00 +13°C° 0.6 mm 4 mps 745 mmHg 91%
17:00 +13°C° 0.6 mm 5 mps 745 mmHg 91%
18:00 +13°C° 0.6 mm 5 mps 745 mmHg 91%
19:00 +13°C° 0.6 mm 5 mps 745 mmHg 91%
20:00 +13°C° 0.3 mm 5 mps 745 mmHg 91%
21:00 +13°C° 0.3 mm 5 mps 744 mmHg 91%
22:00 +13°C° 0.3 mm 5 mps 744 mmHg 92%
23:00 +14°C° 0.3 mm 5 mps 744 mmHg 92%

30 September, Wednesday

Time Temperature Precipitation Wind Pressure Humidity
00:00 +14°C° 0.3 mm 5 mps 743 mmHg 92%
01:00 +14°C° 0.3 mm 6 mps 743 mmHg 92%
02:00 +13°C° 0.7 mm 6 mps 743 mmHg 92%
03:00 +13°C° 0.7 mm 6 mps 743 mmHg 92%
04:00 +13°C° 0.7 mm 6 mps 743 mmHg 92%
05:00 +13°C° 0.4 mm 6 mps 743 mmHg 92%
06:00 +13°C° 0.4 mm 6 mps 743 mmHg 92%
07:00 +13°C° 0.4 mm 5 mps 743 mmHg 92%
08:00 +12°C° 0.8 mm 5 mps 743 mmHg 92%
09:00 +12°C° 0.8 mm 5 mps 743 mmHg 92%
10:00 +12°C° 0.8 mm 5 mps 743 mmHg 91%
11:00 +12°C° 1 mm 5 mps 743 mmHg 91%
12:00 +12°C° 1 mm 5 mps 743 mmHg 92%
13:00 +12°C° 1 mm 5 mps 743 mmHg 92%
14:00 +10°C° 1 mm 5 mps 743 mmHg 92%
15:00 +10°C° 1 mm 5 mps 743 mmHg 92%
16:00 +10°C° 1 mm 5 mps 743 mmHg 92%
17:00 +10°C° 0.2 mm 5 mps 743 mmHg 93%
18:00 +10°C° 0.2 mm 5 mps 743 mmHg 93%
19:00 +11°C° 0.2 mm 4 mps 744 mmHg 93%
20:00 +11°C° 0 mm 4 mps 744 mmHg 94%
21:00 +12°C° 0 mm 3 mps 744 mmHg 94%
22:00 +12°C° 0 mm 3 mps 744 mmHg 94%
23:00 +11°C° 0 mm 3 mps 744 mmHg 95%
Show more